Time,TemperatureF,DewpointF,PressureIn,WindDirection,WindDirectionDegrees,WindSpeedMPH,WindSpeedGustMPH,Humidity,HourlyPrecipIn,Conditions,Clouds,dailyrainin,SoftwareType,DateUTC
2013-01-04 00:03:00,29.0,23.0,30.14,WNW,283,3.0,9.0,79,0.00,,,0.00,,2013-01-04 05:03:00,
2013-01-04 00:12:00,29.0,23.0,30.14,WNW,283,3.0,9.0,79,0.00,,,0.00,,2013-01-04 05:12:00,
2013-01-04 00:22:00,29.0,23.0,30.14,WNW,283,3.0,9.0,79,0.00,,,0.00,,2013-01-04 05:22:00,
2013-01-04 00:33:00,30.0,24.0,30.14,WNW,291,5.0,9.0,79,0.00,,,0.00,,2013-01-04 05:33:00,
2013-01-04 00:42:00,30.0,24.0,30.14,WNW,291,5.0,9.0,79,0.00,,,0.00,,2013-01-04 05:42:00,
2013-01-04 00:53:00,30.0,24.0,30.14,WNW,291,5.0,9.0,79,0.00,,,0.00,,2013-01-04 05:53:00,
2013-01-04 01:02:00,30.0,24.0,30.13,WSW,248,5.0,12.0,79,0.00,,,0.00,,2013-01-04 06:02:00,
2013-01-04 01:12:00,30.0,24.0,30.13,WSW,248,5.0,12.0,79,0.00,,,0.00,,2013-01-04 06:12:00,
2013-01-04 01:22:00,30.0,24.0,30.13,WSW,248,5.0,12.0,79,0.00,,,0.00,,2013-01-04 06:22:00,
2013-01-04 01:33:00,29.0,23.0,30.11,West,272,9.0,20.0,79,0.00,,,0.00,,2013-01-04 06:33:00,
2013-01-04 01:42:00,29.0,23.0,30.11,West,272,9.0,20.0,79,0.00,,,0.00,,2013-01-04 06:42:00,
2013-01-04 01:53:00,29.0,23.0,30.11,West,272,9.0,20.0,79,0.00,,,0.00,,2013-01-04 06:53:00,
2013-01-04 02:02:00,29.0,23.0,30.11,West,259,6.0,13.0,79,0.00,,,0.00,,2013-01-04 07:02:00,
2013-01-04 02:12:00,29.0,23.0,30.11,West,259,6.0,13.0,79,0.00,,,0.00,,2013-01-04 07:12:00,
2013-01-04 02:22:00,29.0,23.0,30.11,West,259,6.0,13.0,79,0.00,,,0.00,,2013-01-04 07:22:00,
2013-01-04 02:32:00,29.0,23.0,30.11,SW,232,6.0,17.0,79,0.00,,,0.00,,2013-01-04 07:32:00,
2013-01-04 02:42:00,29.0,23.0,30.11,SW,232,6.0,17.0,79,0.00,,,0.00,,2013-01-04 07:42:00,
2013-01-04 02:52:00,29.0,23.0,30.11,SW,232,6.0,17.0,79,0.00,,,0.00,,2013-01-04 07:52:00,
2013-01-04 03:02:00,29.0,23.0,30.11,West,260,8.0,17.0,79,0.00,,,0.00,,2013-01-04 08:02:00,
2013-01-04 03:12:00,29.0,23.0,30.11,West,260,8.0,17.0,79,0.00,,,0.00,,2013-01-04 08:12:00,
2013-01-04 03:23:00,29.0,23.0,30.11,West,260,8.0,17.0,79,0.00,,,0.00,,2013-01-04 08:23:00,
2013-01-04 03:32:00,29.0,23.0,30.11,West,276,7.0,21.0,79,0.00,,,0.00,,2013-01-04 08:32:00,
2013-01-04 03:42:00,29.0,23.0,30.11,West,276,7.0,21.0,79,0.00,,,0.00,,2013-01-04 08:42:00,
2013-01-04 03:53:00,29.0,23.0,30.11,West,276,7.0,21.0,79,0.00,,,0.00,,2013-01-04 08:53:00,
2013-01-04 04:02:00,29.0,23.0,30.10,West,266,7.0,22.0,79,0.00,,,0.00,,2013-01-04 09:02:00,